Stations météo

réclame
Mon MeteoGroup
Cordoba Aeropuerto (AWS), Espagne (8410): Température de l'air & dewpoint: 17.04.2018 04:00:00 - 23.04.2018 04:00:00 (CEST)Cordoba Aeropuerto (AWS), Espagne (8410): Vitesse du vent: 17.04.2018 04:00:00 - 23.04.2018 04:00:00 (CEST)Cordoba Aeropuerto (AWS), Espagne (8410): Direction du vent: 17.04.2018 04:00:00 - 23.04.2018 04:00:00 (CEST)Cordoba Aeropuerto (AWS), Espagne (8410): reduced air pressure: 17.04.2018 04:00:00 - 23.04.2018 04:00:00 (CEST)Cordoba Aeropuerto (AWS), Espagne (8410): visibility: 17.04.2018 04:00:00 - 23.04.2018 04:00:00 (CEST)
Date & Time tt [°C] td [°C] ff [km/h] ff [knt] dd ppp [hPa] vv [km]
23.04.2018 04:00:00 - - - - - - -
23.04.2018 03:00:00 - - - - - - -
23.04.2018 02:00:00 - - - - - - -
23.04.2018 01:00:00 - - - - - - -
23.04.2018 00:00:00 - - - - - - -
22.04.2018 23:00:00 - - - - - - -
22.04.2018 22:00:00 - - - - - - -
22.04.2018 21:00:00 - - - - - - -
22.04.2018 20:00:00 - - - - - - -
22.04.2018 19:00:00 - - - - - - -
22.04.2018 18:00:00 - - - - - - -
22.04.2018 17:00:00 - - - - - - -
22.04.2018 16:00:00 - - - - - - -
22.04.2018 15:00:00 - - - - - - -
22.04.2018 14:00:00 - - - - - - -
22.04.2018 13:00:00 - - - - - - -
22.04.2018 12:00:00 - - - - - - -
22.04.2018 11:00:00 - - - - - - -
22.04.2018 10:00:00 - - - - - - -
22.04.2018 09:00:00 - - - - - - -
22.04.2018 08:00:00 13,5 12,4 5 3 SSW 1012,4 20
22.04.2018 07:00:00 - - - - - - -
22.04.2018 06:00:00 - - - - - - -
22.04.2018 05:00:00 - - - - - - -
22.04.2018 04:00:00 - - - - - - -
22.04.2018 03:00:00 - - - - - - -
22.04.2018 02:00:00 - - - - - - -
22.04.2018 01:00:00 - - - - - - -
22.04.2018 00:00:00 - - - - - - -
21.04.2018 23:00:00 - - - - - - -
21.04.2018 22:00:00 - - - - - - -
21.04.2018 21:00:00 - - - - - - -
21.04.2018 20:00:00 - - - - - - -
21.04.2018 19:00:00 - - - - - - -
21.04.2018 18:00:00 - - - - - - -
21.04.2018 17:00:00 - - - - - - -
21.04.2018 16:00:00 - - - - - - -
21.04.2018 15:00:00 - - - - - - -
21.04.2018 14:00:00 23,6 10,4 9 5 ENE 1014,4 20
21.04.2018 13:00:00 - - - - - - -
21.04.2018 12:00:00 - - - - - - -
21.04.2018 11:00:00 18,5 11,4 13 7 E 1014,7 10
21.04.2018 10:00:00 - - - - - - -
21.04.2018 09:00:00 - - - - - - -
21.04.2018 08:00:00 14,3 12,7 0 0 N 1015,3 10
21.04.2018 07:00:00 - - - - - - -
21.04.2018 06:00:00 - - - - - - -
21.04.2018 05:00:00 - - - - - - -
21.04.2018 04:00:00 - - - - - - -
21.04.2018 03:00:00 - - - - - - -
21.04.2018 02:00:00 - - - - - - -
21.04.2018 01:00:00 - - - - - - -
21.04.2018 00:00:00 - - - - - - -
20.04.2018 23:00:00 - - - - - - -
20.04.2018 22:00:00 - - - - - - -
20.04.2018 21:00:00 - - - - - - -
20.04.2018 20:00:00 20,6 11,6 18 10 W 1014,5 20
20.04.2018 19:00:00 - - - - - - -
20.04.2018 18:00:00 - - - - - - -
20.04.2018 17:00:00 25,1 12,3 18 10 SW 1013,5 20
20.04.2018 16:00:00 - - - - - - -
20.04.2018 15:00:00 - - - - - - -
20.04.2018 14:00:00 14,9 9,6 11 6 E 1014,5 20
20.04.2018 13:00:00 - - - - - - -
20.04.2018 12:00:00 - - - - - - -
20.04.2018 11:00:00 19,3 10,8 22 12 ENE 1015,8 20
20.04.2018 10:00:00 - - - - - - -
20.04.2018 09:00:00 - - - - - - -
20.04.2018 08:00:00 11,2 10,3 8 4 E 1016,1 20
20.04.2018 07:00:00 - - - - - - -
20.04.2018 06:00:00 - - - - - - -
20.04.2018 05:00:00 - - - - - - -
20.04.2018 04:00:00 - - - - - - -
20.04.2018 03:00:00 - - - - - - -
20.04.2018 02:00:00 - - - - - - -
20.04.2018 01:00:00 - - - - - - -
20.04.2018 00:00:00 - - - - - - -
19.04.2018 23:00:00 - - - - - - -
19.04.2018 22:00:00 - - - - - - -
19.04.2018 21:00:00 - - - - - - -
19.04.2018 20:00:00 23,9 11,3 15 8 SSW 1015,3 40
19.04.2018 19:00:00 27,8 9,8 0 0 N 1015,2 40
19.04.2018 18:00:00 - - - - - - -
19.04.2018 17:00:00 27,6 9,5 4 2 WSW 1016,0 40
19.04.2018 16:00:00 26,7 9,0 4 2 ENE 1016,8 -
19.04.2018 15:00:00 25,8 8,4 9 5 E 1017,6 -
19.04.2018 14:00:00 24,8 9,8 9 5 E 1018,5 40
19.04.2018 13:00:00 23,6 9,4 15 8 ENE 1019,3 -
19.04.2018 12:00:00 21,8 11,1 15 8 E 1019,8 -
19.04.2018 11:00:00 19,2 12,1 11 6 ENE 1020,3 40
19.04.2018 10:00:00 16,3 11,1 5 3 E 1020,5 -
19.04.2018 09:00:00 12,4 10,3 0 0 N 1020,9 -
19.04.2018 08:00:00 9,7 8,8 4 2 NNE 1020,7 40
19.04.2018 07:00:00 - - - - - - -
19.04.2018 06:00:00 - - - - - - -
19.04.2018 05:00:00 - - - - - - -
19.04.2018 04:00:00 - - - - - - -
19.04.2018 03:00:00 - - - - - - -
19.04.2018 02:00:00 - - - - - - -
19.04.2018 01:00:00 - - - - - - -
19.04.2018 00:00:00 - - - - - - -
18.04.2018 23:00:00 - - - - - - -
18.04.2018 22:00:00 18,7 9,7 9 5 W 1020,3 -
18.04.2018 21:00:00 21,5 9,1 11 6 WSW 1019,4 -
18.04.2018 20:00:00 25,2 13,0 15 8 SW 1018,9 35
18.04.2018 19:00:00 28,3 11,2 0 0 N 1019,0 -
18.04.2018 18:00:00 28,2 10,4 2 1 W 1019,4 -
18.04.2018 17:00:00 27,7 9,8 0 0 N 1019,7 35
18.04.2018 16:00:00 27,5 12,0 4 2 SW 1020,4 -
18.04.2018 15:00:00 26,6 7,8 4 2 E 1020,8 -
18.04.2018 14:00:00 - - - - - - -
18.04.2018 13:00:00 23,4 9,8 9 5 E 1022,1 -
18.04.2018 12:00:00 21,1 10,9 9 5 E 1022,7 -
18.04.2018 11:00:00 18,3 10,9 8 4 E 1022,9 25
18.04.2018 10:00:00 15,2 10,7 8 4 E 1023,2 -
18.04.2018 09:00:00 11,7 9,8 0 0 N 1023,4 -
18.04.2018 08:00:00 8,7 8,1 0 0 N 1023,3 20
18.04.2018 07:00:00 - - - - - - -
18.04.2018 06:00:00 - - - - - - -
18.04.2018 05:00:00 - - - - - - -
18.04.2018 04:00:00 - - - - - - -
18.04.2018 03:00:00 10,9 9,5 0 0 N 1023,0 -
18.04.2018 02:00:00 11,5 9,9 0 0 N 1023,0 -
18.04.2018 01:00:00 12,3 10,5 0 0 N 1022,9 -
18.04.2018 00:00:00 13,8 9,6 0 0 N 1022,8 -
17.04.2018 23:00:00 14,3 11,3 0 0 N 1022,1 -
17.04.2018 22:00:00 17,2 11,9 0 0 N 1021,6 -
17.04.2018 21:00:00 20,9 10,4 0 0 N 1021,0 -
17.04.2018 20:00:00 25,0 8,9 0 0 N 1020,6 30
17.04.2018 19:00:00 25,7 5,1 5 3 S 1020,7 -
17.04.2018 18:00:00 26,3 3,3 4 2 ESE 1021,0 -
17.04.2018 17:00:00 25,9 5,7 4 2 SE 1021,5 30
17.04.2018 16:00:00 24,9 9,5 8 4 SE 1022,1 -
17.04.2018 15:00:00 23,2 11,0 9 5 E 1022,7 -
17.04.2018 14:00:00 21,7 11,3 15 8 ENE 1023,2 -
17.04.2018 13:00:00 20,6 11,0 18 10 E 1023,9 -
17.04.2018 12:00:00 19,0 11,0 16 9 E 1024,3 -
17.04.2018 11:00:00 16,2 9,9 21 11 ENE 1024,5 30
17.04.2018 10:00:00 - - - - - - -
17.04.2018 09:00:00 11,0 9,4 11 6 ENE 1024,4 -
17.04.2018 08:00:00 7,9 7,5 0 0 N 1024,0 -
17.04.2018 07:00:00 7,3 6,9 0 0 N 1023,6 -
17.04.2018 06:00:00 8,0 7,6 0 0 N 1023,4 -
17.04.2018 05:00:00 7,9 7,5 0 0 N 1023,4 -
17.04.2018 04:00:00 8,7 8,1 0 0 N 1023,3 -

tt = Température de l'air
td = dewpoint
ff = Vitesse du vent
dd = Direction du vent
ppp = reduced air pressure
vv = visibility

stations d'obs. à proximité